CW8826 Weather Reports


Display with metric or nautical units.
time (UTC)temp
F
wind
direction
speed
MPH
gust
MPH
rain 1hr
in
rain 24hr
in
rain mn
in
humidity
%
barometer
mb
20260902222536 80 248 7.0 23.0 0.00 0.00 0.00 21 1014.1
20260902221516 79 225 6.0 15.0 0.00 0.00 0.00 21 1013.8
20260902220516 79 248 9.0 16.0 0.00 0.00 0.00 21 1014.0
20260902215516 80 225 6.0 17.0 0.00 0.00 0.00 19 1014.3
20260902214516 81 225 7.0 18.0 0.00 0.00 0.00 20 1014.4
20260902213516 81 203 7.0 18.0 0.00 0.00 0.00 20 1014.5
20260902212516 81 225 9.0 18.0 0.00 0.00 0.00 20 1014.5
20260902211516 80 225 8.0 21.0 0.00 0.00 0.00 21 1014.4
20260902210516 80 225 7.0 16.0 0.00 0.00 0.00 21 1014.4
20260902205537 80 180 7.0 20.0 0.00 0.00 0.00 22 1015.0
20260902204516 80 225 7.0 15.0 0.00 0.00 0.00 21 1014.9
20260902203536 80 225 8.0 17.0 0.00 0.00 0.00 20 1015.0
20260902202516 79 225 9.0 20.0 0.00 0.00 0.00 21 1014.7
20260902201517 79 225 8.0 19.0 0.00 0.00 0.00 22 1014.8
20260902200520 79 158 10.0 21.0 0.00 0.00 0.00 22 1015.0
20260902195516 80 225 7.0 21.0 0.00 0.00 0.00 24 1015.1
20260902194516 79 225 9.0 19.0 0.00 0.00 0.00 25 1015.2
20260902193537 79 225 10.0 23.0 0.00 0.00 0.00 23 1015.3
20260902192516 79 135 9.0 19.0 0.00 0.00 0.00 24 1015.0
20260902191525 78 225 7.0 16.0 0.00 0.00 0.00 27 1015.2
20260902190536 78 203 9.0 23.0 0.00 0.00 0.00 28 1015.4
20260902185516 77 225 9.0 20.0 0.00 0.00 0.00 29 1015.2
20260902184516 77 158 8.0 20.0 0.00 0.00 0.00 30 1015.3
20260902183516 77 203 9.0 18.0 0.00 0.00 0.00 30 1015.5
20260902182516 77 203 9.0 20.0 0.00 0.00 0.00 30 1016.0
20260902181516 76 225 11.0 22.0 0.00 0.00 0.00 33 1016.0
20260902180516 75 158 9.0 22.0 0.00 0.00 0.00 34 1015.8
20260902175516 75 203 9.0 19.0 0.00 0.00 0.00 34 1016.4
20260902174516 75 203 5.0 11.0 0.00 0.00 0.00 36 1016.7
20260902173516 74 203 6.0 16.0 0.00 0.00 0.00 38 1016.4
20260902172516 74 158 5.0 10.0 0.00 0.00 0.00 38 1017.0
20260902171516 74 158 4.0 11.0 0.00 0.00 0.00 39 1016.8
20260902170516 74 158 9.0 18.0 0.00 0.00 0.00 37 1017.0
20260902165516 72 225 4.0 11.0 0.00 0.00 0.00 39 1016.6
20260902164516 72 158 5.0 12.0 0.00 0.00 0.00 39 1016.5
20260902163516 72 135 4.0 8.0 0.00 0.00 0.00 39 1016.6
20260902162516 73 135 6.0 17.0 0.00 0.00 0.00 36 1016.6
20260902161516 73 203 6.0 16.0 0.00 0.00 0.00 37 1017.0
20260902160536 73 180 8.0 19.0 0.00 0.00 0.00 36 1016.9
20260902155516 73 135 10.0 21.0 0.00 0.00 0.00 36 1017.3
20260902154516 73 203 5.0 12.0 0.00 0.00 0.00 36 1017.4
20260902153516 73 158 7.0 13.0 0.00 0.00 0.00 36 1017.2
20260902152516 73 180 7.0 18.0 0.00 0.00 0.00 36 1017.0
20260902151516 73 158 7.0 15.0 0.00 0.00 0.00 37 1016.9
20260902150516 72 158 7.0 15.0 0.00 0.00 0.00 37 1016.7
20260902145616 72 135 10.0 20.0 0.00 0.00 0.00 37 1016.8
20260902144536 72 135 8.0 17.0 0.00 0.00 0.00 36 1016.6
20260902143516 72 158 11.0 25.0 0.00 0.00 0.00 35 1016.3
20260902142516 71 158 9.0 17.0 0.00 0.00 0.00 37 1016.4
20260902141516 71 180 9.0 20.0 0.00 0.00 0.00 37 1016.2
20260902140516 71 158 9.0 17.0 0.00 0.00 0.00 38 1016.1
20260902135516 71 180 7.0 15.0 0.00 0.00 0.00 37 1016.3
20260902134516 71 158 8.0 17.0 0.00 0.00 0.00 37 1016.3
20260902133516 71 158 7.0 24.0 0.00 0.00 0.00 37 1016.4
20260902132536 71 180 5.0 13.0 0.00 0.00 0.00 36 1016.6
20260902131516 71 135 8.0 19.0 0.00 0.00 0.00 36 1016.7
20260902130521 71 180 6.0 14.0 0.00 0.00 0.00 38 1016.6
20260902125516 70 158 6.0 15.0 0.00 0.00 0.00 41 1016.6
20260902124536 68 68 3.0 13.0 0.00 0.00 0.00 46 1016.4
20260902123536 68 68 4.0 6.0 0.00 0.00 0.00 47 1016.3
20260902122516 68 45 2.0 6.0 0.00 0.00 0.00 47 1016.2
20260902121516 69 23 2.0 5.0 0.00 0.00 0.00 45 1016.6
20260902120536 68 225 3.0 12.0 0.00 0.00 0.00 49 1016.5
20260902115516 68 90 3.0 6.0 0.00 0.00 0.00 46 1016.0
20260902114536 70 113 1.0 3.0 0.00 0.00 0.00 44 1016.6
20260902113516 71 225 4.0 13.0 0.00 0.00 0.00 41 1016.3
20260902112516 70 248 2.0 10.0 0.00 0.00 0.00 41 1015.9
20260902111516 70 248 2.0 6.0 0.00 0.00 0.00 41 1016.0
20260902110516 71 225 5.0 13.0 0.00 0.00 0.00 38 1016.3
20260902105536 71 158 3.0 11.0 0.00 0.00 0.00 38 1016.1
20260902104516 72 248 4.0 11.0 0.00 0.00 0.00 36 1016.3
20260902103521 72 248 2.0 7.0 0.00 0.00 0.00 37 1016.5
20260902102516 74 203 9.0 19.0 0.00 0.00 0.00 31 1016.7
20260902101536 74 135 8.0 22.0 0.00 0.00 0.00 31 1016.7
20260902100516 74 225 7.0 16.0 0.00 0.00 0.00 31 1016.8
20260902095516 74 225 7.0 17.0 0.00 0.00 0.00 31 1016.9
20260902094516 74 158 6.0 15.0 0.00 0.00 0.00 31 1017.2
20260902093516 74 225 8.0 16.0 0.00 0.00 0.00 30 1017.2
20260902092516 74 158 8.0 19.0 0.00 0.00 0.00 30 1017.3
20260902091516 74 158 7.0 15.0 0.00 0.00 0.00 30 1017.4
20260902090516 74 158 7.0 18.0 0.00 0.00 0.00 32 1017.5
20260902085516 74 225 7.0 15.0 0.00 0.00 0.00 32 1016.9
20260902084536 74 203 8.0 16.0 0.00 0.00 0.00 32 1017.1
20260902083516 74 158 7.0 16.0 0.00 0.00 0.00 33 1017.1
20260902082516 74 158 9.0 17.0 0.00 0.00 0.00 32 1017.1
20260902081516 74 225 7.0 15.0 0.00 0.00 0.00 33 1017.1
20260902080516 74 180 8.0 21.0 0.00 0.00 0.00 33 1017.2
20260902075516 74 158 8.0 18.0 0.00 0.00 0.00 33 1016.8
20260902074516 74 158 7.0 12.0 0.00 0.00 0.00 33 1016.8
20260902073516 74 158 6.0 14.0 0.00 0.00 0.00 34 1016.8
20260902072519 74 225 6.0 14.0 0.00 0.00 0.00 33 1016.6
20260902071516 74 135 8.0 17.0 0.00 0.00 0.00 34 1016.6
20260902070516 73 225 7.0 18.0 0.00 0.00 0.00 35 1016.6
20260902065515 71 248 4.0 16.0 0.00 0.00 0.00 39 1016.0
20260902064636 72 90 2.0 7.0 0.00 0.00 0.00 39 1015.9
20260902063516 72 90 2.0 8.0 0.00 0.00 0.00 38 1015.8
20260902062556 73 0.0 1.0 0.00 0.00 0.00 39 1016.2
20260902060516 74 225 2.0 12.0 0.00 0.00 0.00 35 1016.2
20260902055517 74 135 2.0 5.0 0.00 0.00 0.00 35 1016.3
20260902054557 75 135 4.0 10.0 0.00 0.00 0.00 34 1016.3
20260902053516 75 158 4.0 10.0 0.00 0.00 0.00 33 1016.4
20260902052516 76 158 6.0 10.0 0.00 0.00 0.00 32 1016.5
20260902051536 76 158 6.0 15.0 0.00 0.00 0.00 32 1016.4
20260902050517 76 135 7.0 13.0 0.00 0.00 0.00 32 1016.7
20260902045516 76 135 5.0 10.0 0.00 0.00 0.00 32 1016.3
20260902044516 76 158 8.0 17.0 0.00 0.00 0.00 32 1016.3
20260902043537 76 158 9.0 18.0 0.00 0.00 0.00 33 1016.2
20260902042516 77 135 8.0 18.0 0.00 0.00 0.00 33 1016.0
20260902041516 76 135 8.0 15.0 0.00 0.00 0.00 33 1016.1
20260902040516 77 158 5.0 12.0 0.00 0.00 0.00 32 1016.1
20260902035517 77 158 7.0 16.0 0.00 0.00 0.00 33 1016.0
20260902034516 77 158 8.0 20.0 0.00 0.00 0.00 32 1016.0
20260902033516 77 158 8.0 16.0 0.00 0.00 0.00 32 1016.0
20260902032537 77 158 9.0 18.0 0.00 0.00 0.00 31 1015.2
20260902031537 76 158 6.0 13.0 0.00 0.00 0.00 33 1014.9
20260902030517 76 135 7.0 14.0 0.00 0.00 0.00 33 1014.9
20260902025518 77 158 7.0 17.0 0.00 0.00 0.00 34 1014.9
20260902024516 77 135 8.0 17.0 0.00 0.00 0.00 34 1014.9
20260902023516 77 135 9.0 22.0 0.00 0.00 0.00 33 1014.8
20260902022516 77 135 10.0 21.0 0.00 0.00 0.00 34 1014.7
20260902021516 77 158 9.0 19.0 0.00 0.00 0.00 36 1014.6
20260902020517 77 135 6.0 14.0 0.00 0.00 0.00 36 1014.5
20260902015516 77 158 10.0 25.0 0.00 0.00 0.00 34 1014.4
20260902014516 78 158 7.0 14.0 0.00 0.00 0.00 35 1014.5
20260902013516 79 135 6.0 14.0 0.00 0.00 0.00 34 1014.7
20260902012537 79 158 9.0 17.0 0.00 0.00 0.00 33 1015.0
20260902011517 79 135 7.0 21.0 0.00 0.00 0.00 33 1015.2
20260902010536 80 158 5.0 10.0 0.00 0.00 0.00 33 1015.5
20260902005516 79 158 6.0 12.0 0.00 0.00 0.00 34 1015.6
20260902004517 80 158 7.0 15.0 0.00 0.00 0.00 34 1015.8
20260902003516 80 158 3.0 8.0 0.00 0.00 0.00 33 1015.7
20260902002516 80 203 7.0 17.0 0.00 0.00 0.00 33 1016.1
20260902001516 80 225 4.0 9.0 0.00 0.00 0.00 33 1016.3
20260902000516 81 135 7.0 16.0 0.00 0.00 0.00 32 1016.2
20260901235516 80 203 5.0 15.0 0.00 0.00 0.00 33 1016.3
20260901234536 80 158 4.0 10.0 0.00 0.00 0.00 33 1016.4
20260901233516 80 135 5.0 11.0 0.00 0.00 0.00 33 1016.5
20260901232517 79 203 8.0 19.0 0.00 0.00 0.00 33 1016.2
20260901231516 80 203 6.0 15.0 0.00 0.00 0.00 33 1016.3
20260901230516 80 135 7.0 15.0 0.00 0.00 0.00 34 1016.5
20260901225516 79 158 6.0 15.0 0.00 0.00 0.00 33 1016.9
20260901224516 79 225 4.0 10.0 0.00 0.00 0.00 36 1017.0
20260901223536 78 225 7.0 17.0 0.00 0.00 0.00 36 1016.9